Weather History for Pawtucket, RI

Change the Weather History Date:

Sunday, November 4, 2012

  Actual Average Record
Temperature  
Mean Temperature 43 °F -  
Max Temperature 53 °F 51 °F 66 °F (2005)
Min Temperature 33 °F 35 °F 23 °F (2013)
Degree Days  
Heating Degree Days 22    
Moisture  
Dew Point 29 °F    
Average Humidity 62    
Maximum Humidity 75    
Minimum Humidity 44    
Precipitation  
Precipitation 0.00 in - - ()
Sea Level Pressure  
Sea Level Pressure 29.86 in    
Wind  
Wind Speed 8 mph (NW)    
Max Wind Speed 14 mph    
Max Gust Speed 18 mph    
Visibility 10 miles    
Events      
Averages and records for this station are not official NWS values.
T = Trace of Precipitation, MM = Missing Value Source: NWS Daily Summary

Daily Weather History Graph

Daily Weather History Graph

Search for Another Location

Airport:

Trip Planner

Search our weather history database for the weather conditions in past years. The results will help you decide how hot, cold, wet, or windy it might be!

Date:

Astronomy

Nov. 04, 2012 Rise Set
Actual Time 6:22 AM EST 4:35 PM EST
Civil Twilight 5:53 AM EST 5:05 PM EST
Nautical Twilight 5:20 AM EST 5:38 PM EST
Astronomical Twilight 4:47 AM EST 6:10 PM EST
Moon 9:10 PM EST (11/4) 11:05 AM EST (11/4)
Length of Visible Light 11h 11m
Length of Day
10h 13m
Waning Gibbous, 72% of the Moon is Illuminated
Nov 4
Waning Gibbous
Nov 6
Last Quarter
Nov 13
New
Nov 20
First Quarter
Nov 28
Full

Hourly Weather History & Observations

Time (EST) Temp. Windchill Dew Point Humidity Pressure Visibility Wind Dir Wind Speed Gust Speed Precip Events Conditions
12:15 AM 39.2 °F 34.2 °F 26.6 °F 61% 29.80 in 10.0 mi WNW 6.9 mph - N/A   Clear
12:35 AM 37.4 °F 32.1 °F 26.6 °F 65% 29.81 in 10.0 mi WNW 6.9 mph - N/A   Clear
12:55 AM 37.4 °F 31.4 °F 26.6 °F 65% 29.81 in 10.0 mi WNW 8.1 mph - N/A   Clear
1:15 AM 37.4 °F 30.8 °F 26.6 °F 65% 29.81 in 10.0 mi West 9.2 mph - N/A   Clear
1:35 AM 37.4 °F 30.8 °F 26.6 °F 65% 29.81 in 10.0 mi West 9.2 mph - N/A   Clear
1:55 AM 37.4 °F 30.3 °F 26.6 °F 65% 29.81 in 10.0 mi West 10.4 mph 16.1 mph N/A   Clear
1:15 AM 37.4 °F 30.8 °F 26.6 °F 65% 29.81 in 10.0 mi WNW 9.2 mph - N/A   Clear
1:35 AM 37.4 °F 30.3 °F 26.6 °F 65% 29.81 in 10.0 mi WNW 10.4 mph - N/A   Clear
1:55 AM 37.4 °F 30.3 °F 26.6 °F 65% 29.81 in 10.0 mi WNW 10.4 mph 16.1 mph N/A   Clear
2:15 AM 37.4 °F 30.3 °F 26.6 °F 65% 29.81 in 10.0 mi WNW 10.4 mph 16.1 mph N/A   Clear
2:35 AM 37.4 °F 32.1 °F 26.6 °F 65% 29.81 in 10.0 mi WNW 6.9 mph - N/A   Clear
2:55 AM 37.4 °F 31.4 °F 26.6 °F 65% 29.81 in 10.0 mi WNW 8.1 mph - N/A   Clear
3:15 AM 35.6 °F 29.9 °F 28.4 °F 75% 29.81 in 10.0 mi WNW 6.9 mph - N/A   Clear
3:35 AM 35.6 °F 28.6 °F 28.4 °F 75% 29.81 in 10.0 mi NW 9.2 mph - N/A   Clear
3:55 AM 37.4 °F 32.1 °F 28.4 °F 70% 29.82 in 10.0 mi WNW 6.9 mph - N/A   Clear
4:15 AM 35.6 °F 28.6 °F 28.4 °F 75% 29.82 in 10.0 mi WNW 9.2 mph - N/A   Clear
4:35 AM 35.6 °F 29.2 °F 28.4 °F 75% 29.83 in 10.0 mi WNW 8.1 mph - N/A   Clear
4:55 AM 35.6 °F 29.2 °F 28.4 °F 75% 29.83 in 10.0 mi WNW 8.1 mph - N/A   Clear
5:55 AM 35.6 °F 30.7 °F 28.4 °F 75% 29.84 in 10.0 mi West 5.8 mph - N/A   Clear
6:15 AM 35.6 °F 29.9 °F 28.4 °F 75% 29.85 in 10.0 mi West 6.9 mph - N/A   Clear
6:35 AM 35.6 °F 30.7 °F 28.4 °F 75% 29.86 in 10.0 mi West 5.8 mph - N/A   Clear
6:55 AM 35.6 °F 29.2 °F 28.4 °F 75% 29.86 in 10.0 mi WNW 8.1 mph - N/A   Clear
7:15 AM 37.4 °F 31.4 °F 28.4 °F 70% 29.87 in 10.0 mi West 8.1 mph - N/A   Clear
7:35 AM 37.4 °F 32.1 °F 28.4 °F 70% 29.87 in 10.0 mi WNW 6.9 mph - N/A   Clear
7:55 AM 39.2 °F 33.0 °F 30.2 °F 70% 29.88 in 10.0 mi WNW 9.2 mph - N/A   Clear
8:15 AM 41.0 °F 34.7 °F 30.2 °F 65% 29.87 in 10.0 mi NNW 10.4 mph - N/A   Clear
8:35 AM 42.8 °F 37.0 °F 30.2 °F 61% 29.87 in 10.0 mi NW 10.4 mph - N/A   Clear
8:55 AM 42.8 °F 37.0 °F 32.0 °F 66% 29.88 in 10.0 mi NW 10.4 mph - N/A   Clear
9:35 AM 46.4 °F 41.5 °F 32.0 °F 57% 29.88 in 10.0 mi NW 10.4 mph - N/A   Clear
9:55 AM 46.4 °F 41.5 °F 32.0 °F 57% 29.88 in 10.0 mi WNW 10.4 mph - N/A   Clear
10:15 AM 48.2 °F - 32.0 °F 54% 29.88 in 10.0 mi NW 8.1 mph - N/A   Clear
10:35 AM 48.2 °F - 32.0 °F 54% 29.87 in 10.0 mi NW 8.1 mph - N/A   Clear
10:55 AM 48.2 °F - 33.8 °F 58% 29.87 in 10.0 mi North 8.1 mph - N/A   Clear
11:15 AM 50.0 °F - 33.8 °F 54% 29.86 in 10.0 mi NNW 11.5 mph - N/A   Clear
11:35 AM 51.8 °F - 33.8 °F 50% 29.86 in 10.0 mi NNW 9.2 mph - N/A   Clear
11:55 AM 51.8 °F - 32.0 °F 47% 29.86 in 10.0 mi NNW 6.9 mph - N/A   Clear
12:15 PM 51.8 °F - 32.0 °F 47% 29.85 in 10.0 mi WNW 6.9 mph - N/A   Clear
12:35 PM 51.8 °F - 32.0 °F 47% 29.85 in 10.0 mi NNW 5.8 mph - N/A   Clear
12:55 PM 51.8 °F - 33.8 °F 50% 29.85 in 10.0 mi WNW 6.9 mph - N/A   Clear
1:15 PM 51.8 °F - 33.8 °F 50% 29.85 in 10.0 mi NNW 11.5 mph - N/A   Clear
1:35 PM 53.6 °F - 33.8 °F 47% 29.84 in 10.0 mi North 8.1 mph - N/A   Partly Cloudy
1:55 PM 51.8 °F - 33.8 °F 50% 29.84 in 10.0 mi WNW 5.8 mph - N/A   Clear
2:15 PM 53.6 °F - 32.0 °F 44% 29.84 in 10.0 mi West 6.9 mph - N/A   Scattered Clouds
2:35 PM 53.6 °F - 32.0 °F 44% 29.84 in 10.0 mi WNW 6.9 mph - N/A   Scattered Clouds
2:55 PM 51.8 °F - 33.8 °F 50% 29.85 in 10.0 mi NNW 10.4 mph - N/A   Partly Cloudy
3:15 PM 51.8 °F - 32.0 °F 47% 29.85 in 10.0 mi NW 8.1 mph - N/A   Clear
3:35 PM 51.8 °F - 30.2 °F 44% 29.86 in 10.0 mi WNW 8.1 mph - N/A   Clear
3:55 PM 50.0 °F - 30.2 °F 47% 29.86 in 10.0 mi West 8.1 mph - N/A   Clear
4:15 PM 48.2 °F - 30.2 °F 50% 29.86 in 10.0 mi NW 6.9 mph - N/A   Partly Cloudy
4:35 PM 46.4 °F 41.9 °F 30.2 °F 53% 29.87 in 10.0 mi NNW 9.2 mph - N/A   Scattered Clouds
4:55 PM 46.4 °F 41.1 °F 30.2 °F 53% 29.88 in 10.0 mi North 11.5 mph - N/A   Mostly Cloudy
5:35 PM 42.8 °F 36.6 °F 30.2 °F 61% 29.89 in 10.0 mi North 11.5 mph 16.1 mph N/A   Clear
5:55 PM 42.8 °F 35.8 °F 30.2 °F 61% 29.90 in 10.0 mi NNW 13.8 mph 18.4 mph N/A   Clear
6:15 PM 41.0 °F 34.3 °F 28.4 °F 61% 29.90 in 10.0 mi NNW 11.5 mph - N/A   Clear
6:35 PM 39.2 °F 32.0 °F 28.4 °F 65% 29.90 in 10.0 mi NNW 11.5 mph - N/A   Clear
6:55 PM 39.2 °F 33.6 °F 28.4 °F 65% 29.91 in 10.0 mi NNW 8.1 mph - N/A   Clear
7:15 PM 39.2 °F 34.2 °F 28.4 °F 65% 29.91 in 10.0 mi NW 6.9 mph - N/A   Clear
7:35 PM 37.4 °F 32.8 °F 28.4 °F 70% 29.92 in 10.0 mi NW 5.8 mph - N/A   Clear
7:55 PM 37.4 °F 32.8 °F 28.4 °F 70% 29.92 in 10.0 mi NW 5.8 mph - N/A   Clear
8:15 PM 37.4 °F 33.8 °F 28.4 °F 70% 29.92 in 10.0 mi NW 4.6 mph - N/A   Clear
8:35 PM 37.4 °F 33.8 °F 26.6 °F 65% 29.92 in 10.0 mi NW 4.6 mph - N/A   Clear
9:15 PM 37.4 °F 33.8 °F 28.4 °F 70% 29.92 in 10.0 mi NW 4.6 mph - N/A   Clear
9:35 PM 35.6 °F 30.7 °F 26.6 °F 70% 29.92 in 10.0 mi NW 5.8 mph - N/A   Clear
9:55 PM 35.6 °F 32.8 °F 26.6 °F 70% 29.92 in 10.0 mi NW 3.5 mph - N/A   Clear
10:15 PM 35.6 °F 32.8 °F 26.6 °F 70% 29.92 in 10.0 mi NW 3.5 mph - N/A   Clear
10:35 PM 33.8 °F 30.8 °F 26.6 °F 75% 29.91 in 10.0 mi NW 3.5 mph - N/A   Clear
10:55 PM 35.6 °F 32.8 °F 26.6 °F 70% 29.91 in 10.0 mi NW 3.5 mph - N/A   Clear